Home   Weather   Marrakech   Past weeks

Flag for Morocco Past Weather in Marrakech, Morocco — Yesterday and Last 2 Weeks

Now
72 °F

Overcast.


Feels Like: 76 °F
Forecast: 64 / 85 °F
Wind: 5 mph from Southwest

Location: Marrakech Airport

Current Time: May 26, 2017 at 12:54:26 pm

Latest Report: May 26, 2017 at 12:00 pm


Visibility: N/A

Pressure: 29.95 "Hg

Humidity: 57%

Dew Point: 55 °F

Location of MarrakechLocation

Past Weather in Marrakech — Graph

°F

Marrakech Temperature Yesterday

Maximum temperature yesterday: 82 °F (at 6:00 pm)
Minimum temperature yesterday: 64 °F (at 12:30 am)
Average temperature yesterday: 70 °F

High & Low Weather Summary for the Past Weeks

 TemperatureHumidityPressure
High106 °F (May 20, 1:30 pm)83% (May 24, 7:30 am)30.21 "Hg (May 24, 7:30 am)
Low61 °F (May 12, 3:30 am)4% (May 16, 3:30 pm)29.77 "Hg (May 11, 4:00 pm)
Average77 °F37%29.98 "Hg
* Reported May 11 12:00 pm — May 26 11:30 am, Marrakech. Weather by CustomWeather, © 2017

Note: Actual official high and low records may vary slightly from our data, if they occured in-between our weather recording intervals... More about our weather records

Advertising

Marrakech Weather History for the Previous 24 Hours

Scroll right to see more
 ConditionsComfort  
Time TempWeatherWind HumidityBarometerVisibility
11:30 am
Fri, May 26
72 °FOvercast.5 mph57%29.95 "HgN/A
11:00 am70 °FOvercast.2 mph60%29.98 "HgN/A
10:30 am68 °FOvercast.5 mph64%29.98 "HgN/A
10:00 am68 °FOvercast.5 mph64%29.98 "HgN/A
9:30 am68 °FOvercast.5 mph64%29.98 "HgN/A
9:00 am68 °FOvercast.5 mph64%29.98 "HgN/A
8:30 am66 °FOvercast.6 mph68%29.98 "HgN/A
8:00 am66 °FOvercast.6 mph68%29.98 "HgN/A
7:00 am66 °FOvercast.6 mph68%29.98 "HgN/A
6:30 am66 °FOvercast.6 mph68%29.95 "HgN/A
6:00 am66 °FOvercast.3 mph68%29.95 "HgN/A
5:30 am66 °FPartly sunny.2 mph68%29.95 "HgN/A
5:00 am66 °FPartly sunny.2 mph68%29.95 "HgN/A
4:30 am66 °FPartly sunny.2 mph68%29.95 "HgN/A
4:00 am66 °FPassing clouds.3 mph64%29.95 "HgN/A
3:30 am66 °FPassing clouds.2 mph68%29.95 "HgN/A
3:00 am66 °FPassing clouds.5 mph68%29.95 "HgN/A
2:30 am66 °FPassing clouds.6 mph68%29.95 "HgN/A
2:00 am66 °FPassing clouds.7 mph64%29.95 "HgN/A
1:30 am64 °FPassing clouds.7 mph68%29.98 "HgN/A
1:00 am64 °FPassing clouds.6 mph73%29.98 "HgN/A
12:30 am66 °FPassing clouds.8 mph68%29.98 "HgN/A
12:00 am66 °FPassing clouds.8 mph68%29.98 "HgN/A
11:30 pm
Thu, May 25
66 °FClear.9 mph64%29.98 "Hg10 mi
11:00 pm66 °FClear.9 mph64%29.98 "Hg10 mi
10:30 pm66 °FClear.9 mph64%29.98 "Hg10 mi
10:00 pm68 °FPassing clouds.9 mph60%29.98 "HgN/A
9:30 pm70 °FPassing clouds.7 mph57%29.98 "HgN/A
9:00 pm72 °FPassing clouds.10 mph53%29.95 "HgN/A
8:30 pm72 °FPassing clouds.13 mph53%29.95 "HgN/A
8:00 pm75 °FPassing clouds.7 mph44%29.92 "HgN/A
7:30 pm77 °FPassing clouds.7 mph42%29.92 "HgN/A
7:00 pm79 °FPassing clouds.6 mph39%29.92 "HgN/A
6:30 pm79 °FPassing clouds.5 mph39%29.92 "HgN/A
6:00 pm82 °FScattered clouds.No wind35%29.92 "HgN/A
5:30 pm81 °FScattered clouds.2 mph34%29.92 "HgN/A
5:00 pm79 °FScattered clouds.2 mph39%29.92 "HgN/A
4:30 pm79 °FPartly sunny.3 mph39%29.92 "HgN/A
4:00 pm79 °FPartly sunny.3 mph39%29.92 "HgN/A
3:30 pm77 °FBroken clouds.5 mph42%29.92 "HgN/A
3:00 pm75 °FBroken clouds.6 mph44%29.92 "HgN/A
2:30 pm75 °FBroken clouds.3 mph47%29.92 "HgN/A
2:00 pm75 °FBroken clouds.3 mph44%29.95 "HgN/A
1:30 pm73 °FPartly sunny.3 mph50%29.95 "HgN/A
1:00 pm73 °FPartly sunny.3 mph50%29.95 "HgN/A
12:30 pm72 °FPartly sunny.3 mph53%29.95 "HgN/A
12:00 pm72 °FPartly sunny.6 mph53%29.95 "HgN/A
Weather by CustomWeather, © 2017

See weather overviewHow to use our weather pages